Powrót do katalogu

COSMOS 1857

AktywnyMilitariaLEO
NORAD 18118·PAYLOAD·🇷🇺 Russia

Wystrzelony Jun 16, 1987 z Plesetsk Cosmodrome

Loading…

Następne Przeloty (najbliższe 24 godziny)

TLE

ŚwieżeSource: Space-Track

Epoka: Sep 14, 2026, 19:19 UTC

1 18118U 87051F   26257.80497972 -.00000023  00000-0 -40602-4 0  9991
2 18118  74.0057  31.7231 0038309  30.0111 330.3127 12.54275260797017

Śledź COSMOS 1857 w czasie rzeczywistym z AllMySat

Download on the App Store